#�ϑ�����,���ϕ���,���ϕ���,�ő啗��,�ő啗����������,�ő�u�ԕ���,�ő�u�ԕ�����������
#(�N����),(m/s)   ,(16����),(m/s)   ,(16����)        ,(m/s)       ,(16����)            
2012/3/17 0:01,2.7,2,2.7,3,3.2,4
2012/3/17 0:02,2.7,3,2.7,3,5,3
2012/3/17 0:03,2.9,3,2.9,3,5.7,2
2012/3/17 0:04,3,3,3.1,3,5.7,2
2012/3/17 0:05,3.1,3,3.2,3,5.1,3
2012/3/17 0:06,3.1,3,3.1,3,5.8,3
2012/3/17 0:07,3.1,3,3.1,3,4.4,3
2012/3/17 0:08,3,3,3.1,3,3.6,3
2012/3/17 0:09,2.9,3,3,3,4.5,3
2012/3/17 0:10,3.1,3,3.1,3,4.5,3
2012/3/17 0:11,3.1,3,3.1,3,4.1,5
2012/3/17 0:12,3.1,3,3.2,3,3.8,3
2012/3/17 0:13,2.9,3,3.1,3,3.9,3
2012/3/17 0:14,3,3,3,3,5.8,3
2012/3/17 0:15,3,3,3,3,5.4,2
2012/3/17 0:16,3,3,3.1,3,5.1,3
2012/3/17 0:17,3,3,3,3,5,3
2012/3/17 0:18,3,4,3,3,4.3,3
2012/3/17 0:19,3.2,3,3.2,3,5,4
2012/3/17 0:20,3.2,3,3.2,3,3.9,3
2012/3/17 0:21,3.1,3,3.1,3,3.5,3
2012/3/17 0:22,3.1,3,3.1,3,4.1,3
2012/3/17 0:23,3.2,3,3.2,3,4.5,3
2012/3/17 0:24,3,3,3.2,3,4.2,3
2012/3/17 0:25,2.9,3,3,3,3.9,2
2012/3/17 0:26,2.8,3,2.9,3,4.7,2
2012/3/17 0:27,2.7,3,2.8,3,4.1,1
2012/3/17 0:28,2.8,3,2.8,3,4.9,3
2012/3/17 0:29,2.7,3,2.8,3,3.6,3
2012/3/17 0:30,2.6,3,2.7,3,3.2,3
2012/3/17 0:31,2.5,3,2.6,3,2.9,2
2012/3/17 0:32,2.5,2,2.6,3,4.3,1
2012/3/17 0:33,2.5,2,2.5,3,3.8,3
2012/3/17 0:34,2.5,3,2.5,3,4.4,4
2012/3/17 0:35,2.5,2,2.6,3,4.1,4
2012/3/17 0:36,2.6,2,2.6,3,5.7,3
2012/3/17 0:37,2.7,3,2.7,3,4.7,3
2012/3/17 0:38,2.6,3,2.7,3,4.4,3
2012/3/17 0:39,2.5,2,2.6,3,3.6,3
2012/3/17 0:40,2.5,2,2.5,3,3,2
2012/3/17 0:41,2.7,2,2.7,3,4.7,3
2012/3/17 0:42,2.7,2,2.7,3,3.7,3
2012/3/17 0:43,2.8,2,2.8,2,5.2,3
2012/3/17 0:44,2.8,2,2.8,2,5.2,3
2012/3/17 0:45,2.9,2,2.9,2,5,3
2012/3/17 0:46,2.9,2,3,2,4.9,4
2012/3/17 0:47,2.8,2,2.9,2,4.2,3
2012/3/17 0:48,2.7,2,2.8,2,4.8,3
2012/3/17 0:49,2.8,2,2.8,2,5.1,1
2012/3/17 0:50,2.9,2,2.9,2,5,1
2012/3/17 0:51,2.9,2,2.9,2,4.1,2
2012/3/17 0:52,2.9,2,2.9,2,4.7,3
2012/3/17 0:53,2.9,2,2.9,2,6.1,2
2012/3/17 0:54,2.8,2,2.9,2,5.6,2
2012/3/17 0:55,2.8,2,2.9,2,4.8,3
2012/3/17 0:56,2.8,2,2.8,2,5.2,1
2012/3/17 0:57,2.9,2,2.9,2,5.2,2
2012/3/17 0:58,2.9,2,2.9,2,4.9,3
2012/3/17 0:59,3,2,3,2,6.1,3
2012/3/17 1:00,3,2,3.1,2,4.4,2
2012/3/17 1:01,3,2,3,2,4.3,1
2012/3/17 1:02,3.1,2,3.1,2,4.9,1
2012/3/17 1:03,3,2,3.1,2,4.3,2
2012/3/17 1:04,3,2,3,2,5.1,2
2012/3/17 1:05,3.1,2,3.1,2,4.4,3
2012/3/17 1:06,3,2,3.1,2,3.9,2
2012/3/17 1:07,3,2,3,2,4.9,2
2012/3/17 1:08,3,2,3,2,4.9,2
2012/3/17 1:09,2.9,2,3,2,5.4,2
2012/3/17 1:10,3,2,3,2,5.4,2
2012/3/17 1:11,3,2,3,2,4.2,3
2012/3/17 1:12,3,2,3,2,5.6,3
2012/3/17 1:13,3.1,2,3.1,2,5.8,3
2012/3/17 1:14,3.2,2,3.2,2,6.8,3
2012/3/17 1:15,3.3,2,3.3,2,6.5,3
2012/3/17 1:16,3.5,2,3.5,2,6.7,4
2012/3/17 1:17,3.6,3,3.6,2,5.5,3
2012/3/17 1:18,3.6,3,3.6,2,5.7,4
2012/3/17 1:19,3.6,3,3.7,3,4.7,3
2012/3/17 1:20,3.6,3,3.6,3,5.8,3
2012/3/17 1:21,3.7,3,3.7,3,5.7,3
2012/3/17 1:22,3.7,3,3.8,3,4.4,3
2012/3/17 1:23,3.7,3,3.7,3,3.9,4
2012/3/17 1:24,3.5,3,3.7,3,3.8,3
2012/3/17 1:25,3.4,3,3.5,3,5.2,3
2012/3/17 1:26,3.1,3,3.4,3,4.3,4
2012/3/17 1:27,3.1,3,3.1,3,5.5,3
2012/3/17 1:28,3,3,3,3,4.9,2
2012/3/17 1:29,2.9,2,3,3,5.1,3
2012/3/17 1:30,2.9,2,2.9,3,4.4,3
2012/3/17 1:31,3,2,3,3,6.8,3
2012/3/17 1:32,3.1,2,3.1,3,5.4,3
2012/3/17 1:33,3.2,2,3.2,3,6.7,1
2012/3/17 1:34,3.4,2,3.4,3,6.1,1
2012/3/17 1:35,3.4,2,3.4,3,4.5,3
2012/3/17 1:36,3.3,2,3.4,2,4.3,3
2012/3/17 1:37,3.4,2,3.4,2,4.9,4
2012/3/17 1:38,3.5,3,3.5,2,4.9,3
2012/3/17 1:39,3.6,3,3.6,3,4.4,3
2012/3/17 1:40,3.4,3,3.5,3,3.2,3
2012/3/17 1:41,3.2,3,3.4,3,4.1,2
2012/3/17 1:42,3.1,3,3.2,3,4.5,2
2012/3/17 1:43,3,3,3.1,3,5.5,3
2012/3/17 1:44,3,3,3,3,7.2,2
2012/3/17 1:45,3,3,3,3,5,2
2012/3/17 1:46,3.1,3,3.1,3,4.9,3
2012/3/17 1:47,3.1,3,3.2,3,4.5,3
2012/3/17 1:48,3,3,3.1,3,6.5,2
2012/3/17 1:49,3.1,2,3.1,3,7,3
2012/3/17 1:50,3.4,2,3.4,3,5.8,3
2012/3/17 1:51,3.5,2,3.5,3,4.9,4
2012/3/17 1:52,3.7,3,3.7,3,7.7,3
2012/3/17 1:53,3.8,3,3.8,3,6.4,4
2012/3/17 1:54,3.7,3,3.9,3,4.8,2
2012/3/17 1:55,3.6,3,3.6,3,4.4,3
2012/3/17 1:56,3.8,3,3.8,3,7,3
2012/3/17 1:57,3.7,3,3.8,3,4.4,3
2012/3/17 1:58,3.7,3,3.8,3,4.9,2
2012/3/17 1:59,3.6,3,3.6,3,6.4,3
2012/3/17 2:00,3.7,3,3.7,3,6.3,3
2012/3/17 2:01,3.8,3,3.8,3,5.8,4
2012/3/17 2:02,3.6,3,3.8,3,5,3
2012/3/17 2:03,3.5,3,3.6,3,5.4,2
2012/3/17 2:04,3.5,3,3.5,3,6.2,3
2012/3/17 2:05,3.5,3,3.5,3,4.7,3
2012/3/17 2:06,3.4,3,3.5,3,5.4,3
2012/3/17 2:07,3.4,3,3.4,3,5.5,3
2012/3/17 2:08,3.7,3,3.7,3,6.2,3
2012/3/17 2:09,3.7,3,3.7,3,5.6,4
2012/3/17 2:10,3.5,3,3.6,3,5,3
2012/3/17 2:11,3.4,3,3.5,3,6.1,3
2012/3/17 2:12,3.5,3,3.5,3,5.7,3
2012/3/17 2:13,3.6,3,3.6,3,5.6,4
2012/3/17 2:14,3.6,3,3.7,3,4.1,4
2012/3/17 2:15,3.7,3,3.7,3,5.8,3
2012/3/17 2:16,3.7,3,3.7,3,6.5,3
2012/3/17 2:17,3.8,3,3.8,3,6.3,3
2012/3/17 2:18,3.8,3,3.8,3,4.9,3
2012/3/17 2:19,3.7,3,3.8,3,4.8,3
2012/3/17 2:20,3.7,3,3.7,3,5.4,3
2012/3/17 2:21,3.7,3,3.7,3,6.2,3
2012/3/17 2:22,3.6,3,3.7,3,6.1,3
2012/3/17 2:23,3.6,3,3.6,3,6.9,4
2012/3/17 2:24,3.8,3,3.8,3,6.2,4
2012/3/17 2:25,3.8,3,3.8,3,4.5,3
2012/3/17 2:26,3.8,3,3.8,3,5.5,3
2012/3/17 2:27,3.7,3,3.8,3,5.6,3
2012/3/17 2:28,3.7,3,3.7,3,5.7,4
2012/3/17 2:29,3.8,3,3.8,3,6.3,3
2012/3/17 2:30,3.9,3,3.9,3,5.5,4
2012/3/17 2:31,3.9,3,4,3,6,3
2012/3/17 2:32,3.9,3,4,3,3.9,3
2012/3/17 2:33,3.8,3,3.9,3,4.2,3
2012/3/17 2:34,3.7,3,3.8,3,4.1,3
2012/3/17 2:35,3.5,3,3.6,3,3.9,2
2012/3/17 2:36,3.5,3,3.5,3,7.8,3
2012/3/17 2:37,3.6,3,3.6,3,6.8,4
2012/3/17 2:38,3.5,3,3.5,3,5.5,6
2012/3/17 2:39,3.3,3,3.5,3,4.2,3
2012/3/17 2:40,3.3,3,3.4,3,5.4,3
2012/3/17 2:41,3.2,3,3.3,3,4.3,4
2012/3/17 2:42,3.2,3,3.2,3,4.2,4
2012/3/17 2:43,3.1,3,3.2,3,3.6,4
2012/3/17 2:44,3.3,3,3.3,3,6,3
2012/3/17 2:45,3.4,3,3.4,3,4.9,3
2012/3/17 2:46,3.3,3,3.4,3,6.1,3
2012/3/17 2:47,3.3,3,3.4,3,5.5,3
2012/3/17 2:48,3.2,3,3.3,3,3.6,4
2012/3/17 2:49,3.3,3,3.3,3,4.9,3
2012/3/17 2:50,3.3,3,3.3,3,4.7,4
2012/3/17 2:51,3.3,3,3.3,3,4.8,3
2012/3/17 2:52,3.2,3,3.3,3,4.3,3
2012/3/17 2:53,3.3,3,3.3,3,5.2,2
2012/3/17 2:54,3.2,3,3.3,3,5.5,2
2012/3/17 2:55,3.1,3,3.1,3,4.5,3
2012/3/17 2:56,2.9,3,3.1,3,3.5,2
2012/3/17 2:57,2.9,3,2.9,3,4.9,4
2012/3/17 2:58,2.9,3,2.9,3,4.5,2
2012/3/17 2:59,2.8,3,2.9,3,4.3,3
2012/3/17 3:00,2.6,3,2.8,3,2.9,3
2012/3/17 3:01,2.6,3,2.7,3,4.7,3
2012/3/17 3:02,2.6,2,2.6,3,3.8,2
2012/3/17 3:03,2.6,3,2.7,3,4.5,2
2012/3/17 3:04,2.6,2,2.6,3,4.1,2
2012/3/17 3:05,2.6,2,2.6,3,4.1,3
2012/3/17 3:06,2.8,3,2.8,3,4.8,3
2012/3/17 3:07,2.8,2,2.8,3,5.6,3
2012/3/17 3:08,3,3,3,3,5.8,4
2012/3/17 3:09,3,3,3,3,5,3
2012/3/17 3:10,3.2,3,3.2,3,4.9,3
2012/3/17 3:11,3.1,2,3.2,3,4.4,1
2012/3/17 3:12,3.1,3,3.2,3,4.9,3
2012/3/17 3:13,3.2,2,3.2,3,4.3,3
2012/3/17 3:14,3.3,3,3.3,2,5,3
2012/3/17 3:15,3.3,2,3.3,2,4.9,3
2012/3/17 3:16,3.2,2,3.3,2,4.4,3
2012/3/17 3:17,3.1,3,3.2,2,3.8,4
2012/3/17 3:18,2.9,2,3.1,2,5.2,2
2012/3/17 3:19,3.1,3,3.1,2,5.5,3
2012/3/17 3:20,3.2,3,3.2,2,5.4,3
2012/3/17 3:21,3.2,3,3.2,2,5.7,4
2012/3/17 3:22,3.3,3,3.3,2,4.8,3
2012/3/17 3:23,3.3,3,3.3,2,4.9,3
2012/3/17 3:24,3.2,3,3.3,3,4.2,3
2012/3/17 3:25,3.2,3,3.2,2,5.7,3
2012/3/17 3:26,3.2,3,3.3,3,5.6,3
2012/3/17 3:27,3.2,2,3.3,3,4.1,3
2012/3/17 3:28,3.2,2,3.2,3,4.7,3
2012/3/17 3:29,3,2,3.3,3,5.2,4
2012/3/17 3:30,2.9,2,3,3,5.5,2
2012/3/17 3:31,3,2,3.1,3,5.8,3
2012/3/17 3:32,3,2,3,3,3.9,3
2012/3/17 3:33,3,2,3,3,5.5,2
2012/3/17 3:34,3.1,2,3.1,3,4.8,2
2012/3/17 3:35,3,3,3.1,3,5.1,3
2012/3/17 3:36,2.9,3,3,3,4.4,3
2012/3/17 3:37,3.1,3,3.1,2,4.7,1
2012/3/17 3:38,3.1,3,3.1,2,4.9,3
2012/3/17 3:39,3.2,3,3.2,3,4.8,2
2012/3/17 3:40,3.2,3,3.2,3,4.5,3
2012/3/17 3:41,3,3,3.1,3,4.2,1
2012/3/17 3:42,3.1,2,3.2,3,5.7,3
2012/3/17 3:43,3.1,2,3.1,3,4.8,3
2012/3/17 3:44,3.1,2,3.1,3,5,3
2012/3/17 3:45,3.1,2,3.1,3,4.7,3
2012/3/17 3:46,3.1,2,3.2,3,4.9,3
2012/3/17 3:47,3,2,3.1,3,4.5,3
2012/3/17 3:48,3,2,3,3,4.9,4
2012/3/17 3:49,2.9,3,3,3,4.2,4
2012/3/17 3:50,2.9,3,2.9,3,4.9,3
2012/3/17 3:51,2.9,3,3,3,4.1,3
2012/3/17 3:52,2.9,3,3,2,4.2,3
2012/3/17 3:53,2.7,3,2.8,2,2.9,3
2012/3/17 3:54,2.7,3,2.7,2,4.8,3
2012/3/17 3:55,2.7,3,2.7,2,4.7,3
2012/3/17 3:56,2.7,3,2.7,2,4.3,3
2012/3/17 3:57,2.7,3,2.7,2,4.8,3
2012/3/17 3:58,2.8,3,2.8,2,5,3
2012/3/17 3:59,2.8,3,2.8,3,4.4,2
2012/3/17 4:00,2.8,3,2.8,3,5.7,3
2012/3/17 4:01,3,3,3,3,6.2,4
2012/3/17 4:02,3,3,3,3,3.9,3
2012/3/17 4:03,3,3,3.1,3,4.9,3
2012/3/17 4:04,3.2,3,3.2,3,6.2,3
2012/3/17 4:05,3.2,3,3.3,3,4.2,3
2012/3/17 4:06,3.2,3,3.2,3,4.9,3
2012/3/17 4:07,3.2,3,3.3,3,5.4,3
2012/3/17 4:08,3.3,3,3.3,3,6.1,4
2012/3/17 4:09,3.2,3,3.3,3,3.2,4
2012/3/17 4:10,3.3,3,3.3,3,4.4,3
2012/3/17 4:11,3.2,3,3.3,3,5.1,3
2012/3/17 4:12,3.4,3,3.4,3,5.7,3
2012/3/17 4:13,3.4,3,3.4,3,5,2
2012/3/17 4:14,3.3,3,3.4,3,5.4,2
2012/3/17 4:15,3.4,3,3.4,3,4.5,3
2012/3/17 4:16,3.4,3,3.4,3,4.7,3
2012/3/17 4:17,3.3,3,3.3,3,3.2,4
2012/3/17 4:18,3.1,3,3.3,3,3.7,3
2012/3/17 4:19,3.2,3,3.2,3,4.9,4
2012/3/17 4:20,3.2,3,3.2,3,4.2,4
2012/3/17 4:21,3.1,3,3.2,3,3.7,3
2012/3/17 4:22,3,3,3.1,3,6,2
2012/3/17 4:23,3.1,3,3.1,3,4.8,3
2012/3/17 4:24,3.2,3,3.2,3,6.7,3
2012/3/17 4:25,3.2,3,3.2,3,6,4
2012/3/17 4:26,3.4,3,3.4,3,7.1,2
2012/3/17 4:27,3.6,3,3.6,3,5.8,4
2012/3/17 4:28,3.7,3,3.7,3,5.2,4
2012/3/17 4:29,3.6,3,3.7,3,3.2,5
2012/3/17 4:30,3.4,3,3.6,3,3.1,4
2012/3/17 4:31,3.4,4,3.4,3,4.3,5
2012/3/17 4:32,3.4,4,3.4,3,5,4
2012/3/17 4:33,3.4,4,3.4,3,5,3
2012/3/17 4:34,3.2,4,3.4,3,4.8,3
2012/3/17 4:35,3.2,4,3.2,3,4.9,4
2012/3/17 4:36,3,4,3.2,3,3.9,5
2012/3/17 4:37,2.9,4,3,3,4.2,3
2012/3/17 4:38,2.7,4,2.9,3,3.9,4
2012/3/17 4:39,2.8,4,2.8,3,5,4
2012/3/17 4:40,2.8,4,2.8,3,3.7,4
2012/3/17 4:41,2.8,4,2.8,4,3.8,4
2012/3/17 4:42,2.7,4,2.8,4,4.1,4
2012/3/17 4:43,2.6,4,2.7,4,3.7,5
2012/3/17 4:44,2.6,4,2.6,4,4.7,5
2012/3/17 4:45,2.5,4,2.6,4,4.4,7
2012/3/17 4:46,2.6,4,2.6,4,4.7,4
2012/3/17 4:47,2.6,4,2.6,4,4.5,5
2012/3/17 4:48,2.8,4,2.8,4,5.1,3
2012/3/17 4:49,2.9,4,2.9,4,4.9,3
2012/3/17 4:50,3,4,3,4,5,2
2012/3/17 4:51,3.2,4,3.2,4,5.7,3
2012/3/17 4:52,3.3,4,3.3,4,6.4,3
2012/3/17 4:53,3.5,4,3.5,4,4.5,3
2012/3/17 4:54,3.5,4,3.5,4,4.8,2
2012/3/17 4:55,3.4,3,3.5,4,3.7,4
2012/3/17 4:56,3.4,3,3.4,4,5,3
2012/3/17 4:57,3.4,3,3.4,4,5.4,4
2012/3/17 4:58,3.3,3,3.3,4,4.5,3
2012/3/17 4:59,3.2,3,3.3,4,5,3
2012/3/17 5:00,3.2,3,3.2,4,4.7,3
2012/3/17 5:01,3.3,3,3.3,4,5.6,3
2012/3/17 5:02,3.3,3,3.3,4,5.8,3
2012/3/17 5:03,3.4,3,3.4,4,5.8,3
2012/3/17 5:04,3.4,3,3.4,4,4.7,3
2012/3/17 5:05,3.5,3,3.5,3,4.4,3
2012/3/17 5:06,3.5,3,3.5,3,5,3
2012/3/17 5:07,3.5,3,3.5,3,4.5,3
2012/3/17 5:08,3.5,3,3.6,3,3.8,3
2012/3/17 5:09,3.3,3,3.4,3,5.1,4
2012/3/17 5:10,3.3,3,3.4,3,4.8,3
2012/3/17 5:11,3.1,3,3.3,3,3.9,3
2012/3/17 5:12,2.9,3,3.1,3,4.2,3
2012/3/17 5:13,2.9,3,2.9,3,5.1,2
2012/3/17 5:14,2.9,3,2.9,3,6,3
2012/3/17 5:15,2.8,3,2.9,3,4.3,16
2012/3/17 5:16,3,3,3,3,5.6,3
2012/3/17 5:17,2.9,3,2.9,3,3.9,3
2012/3/17 5:18,3,2,3,3,5,3
2012/3/17 5:19,3.2,3,3.2,3,5.6,3
2012/3/17 5:20,3.3,3,3.3,3,5.1,4
2012/3/17 5:21,3.5,3,3.5,3,5.4,3
2012/3/17 5:22,3.5,3,3.5,3,4.4,4
2012/3/17 5:23,3.4,3,3.5,3,4.2,2
2012/3/17 5:24,3.2,2,3.4,3,4.4,3
2012/3/17 5:25,3.4,3,3.4,3,5.6,4
2012/3/17 5:26,3.2,3,3.4,3,4.1,4
2012/3/17 5:27,3.3,3,3.3,3,5.7,3
2012/3/17 5:28,3.2,3,3.3,3,5,3
2012/3/17 5:29,3.2,3,3.2,3,4.8,3
2012/3/17 5:30,3.1,3,3.2,3,3.9,3
2012/3/17 5:31,3,3,3.1,3,3.5,4
2012/3/17 5:32,3,3,3,3,3.6,3
2012/3/17 5:33,3.1,3,3.1,3,5.1,3
2012/3/17 5:34,3.2,3,3.2,3,5.1,3
2012/3/17 5:35,3.3,3,3.3,3,5.5,2
2012/3/17 5:36,3.3,3,3.3,3,4.9,3
2012/3/17 5:37,3.3,3,3.3,3,3.9,4
2012/3/17 5:38,3.2,3,3.3,3,3.2,3
2012/3/17 5:39,3,3,3.2,3,2.7,1
2012/3/17 5:40,2.9,3,3,3,3.9,2
2012/3/17 5:41,2.8,3,2.9,3,4.1,3
2012/3/17 5:42,2.8,3,2.9,3,3.9,4
2012/3/17 5:43,2.6,3,2.7,3,4.4,2
2012/3/17 5:44,2.6,3,2.6,3,4.5,1
2012/3/17 5:45,2.4,3,2.6,3,4.8,1
2012/3/17 5:46,2.4,3,2.4,3,4.5,3
2012/3/17 5:47,2.4,2,2.5,3,6,3
2012/3/17 5:48,2.6,2,2.6,3,4.9,4
2012/3/17 5:49,2.7,3,2.7,3,5.1,4
2012/3/17 5:50,2.7,3,2.7,3,4.2,4
2012/3/17 5:51,2.7,3,2.8,3,4.3,1
2012/3/17 5:52,2.7,3,2.7,3,3.5,3
2012/3/17 5:53,2.8,3,2.8,3,5,3
2012/3/17 5:54,2.9,3,2.9,3,5.2,4
2012/3/17 5:55,2.8,3,2.9,3,4.3,4
2012/3/17 5:56,2.8,3,2.8,3,4.8,3
2012/3/17 5:57,2.6,3,2.8,3,4.7,2
2012/3/17 5:58,2.5,3,2.6,3,4.7,3
2012/3/17 5:59,2.6,3,2.6,3,6,3
2012/3/17 6:00,2.7,3,2.7,3,5.4,3
2012/3/17 6:01,2.9,3,2.9,3,4.8,3
2012/3/17 6:02,3.1,3,3.1,3,6.2,4
2012/3/17 6:03,3.2,3,3.2,3,5.2,5
2012/3/17 6:04,3.1,3,3.1,3,4.2,4
2012/3/17 6:05,3.3,3,3.3,3,6.1,3
2012/3/17 6:06,3.3,3,3.3,3,5.6,3
2012/3/17 6:07,3.5,3,3.5,3,5.2,3
2012/3/17 6:08,3.5,3,3.5,3,5.7,2
2012/3/17 6:09,3.5,3,3.6,3,5.6,2
2012/3/17 6:10,3.4,3,3.5,3,5,3
2012/3/17 6:11,3.3,3,3.4,3,4.3,3
2012/3/17 6:12,3.1,3,3.3,3,3.2,1
2012/3/17 6:13,2.9,3,3,3,3.1,3
2012/3/17 6:14,3,3,3,3,6,4
2012/3/17 6:15,2.8,2,3,3,3.7,3
2012/3/17 6:16,2.7,2,2.8,3,4.5,1
2012/3/17 6:17,2.7,2,2.8,3,5.1,3
2012/3/17 6:18,2.7,2,2.7,3,3.8,3
2012/3/17 6:19,2.5,3,2.6,3,3.8,4
2012/3/17 6:20,2.4,3,2.5,3,2.7,4
2012/3/17 6:21,2.4,3,2.5,3,3.2,4
2012/3/17 6:22,2.6,3,2.6,3,5.6,3
2012/3/17 6:23,2.7,3,2.7,3,5.1,3
2012/3/17 6:24,2.6,3,2.7,3,4.3,4
2012/3/17 6:25,2.8,3,2.8,2,6.2,3
2012/3/17 6:26,2.8,3,2.8,2,4.2,4
2012/3/17 6:27,2.9,3,2.9,3,6.2,2
2012/3/17 6:28,3,3,3,3,5.5,2
2012/3/17 6:29,3.1,3,3.1,3,5,3
2012/3/17 6:30,3.3,3,3.3,3,3.7,3
2012/3/17 6:31,3.4,3,3.4,3,4.5,4
2012/3/17 6:32,3.4,3,3.4,3,4.4,2
2012/3/17 6:33,3.3,3,3.4,3,4.8,3
2012/3/17 6:34,3.2,3,3.3,3,3.2,3
2012/3/17 6:35,3.1,3,3.3,3,3.6,3
2012/3/17 6:36,3,3,3.1,3,2.4,3
2012/3/17 6:37,2.9,3,3.1,3,4.3,3
2012/3/17 6:38,2.8,3,2.9,3,4.7,3
2012/3/17 6:39,2.7,3,2.8,3,4.8,3
2012/3/17 6:40,2.8,3,2.8,3,4.9,3
2012/3/17 6:41,2.7,3,2.8,3,4.3,3
2012/3/17 6:42,2.8,3,2.8,3,6.4,2
2012/3/17 6:43,2.8,3,2.9,3,4.8,3
2012/3/17 6:44,3,3,3,3,5.7,2
2012/3/17 6:45,3.1,3,3.1,3,5.2,3
2012/3/17 6:46,3.3,3,3.3,3,5,3
2012/3/17 6:47,3.2,3,3.3,3,4.1,3
2012/3/17 6:48,3.2,3,3.3,3,4.1,1
2012/3/17 6:49,3.2,3,3.2,3,4.9,3
2012/3/17 6:50,3.1,3,3.2,3,3.3,4
2012/3/17 6:51,3,3,3,3,4.4,1
2012/3/17 6:52,2.8,3,3,3,4.4,3
2012/3/17 6:53,2.8,3,2.8,3,3.8,3
2012/3/17 6:54,2.7,3,2.8,3,4.3,2
2012/3/17 6:55,2.7,3,2.7,3,4.4,4
2012/3/17 6:56,2.5,3,2.7,3,4.4,3
2012/3/17 6:57,2.5,3,2.6,3,3.2,4
2012/3/17 6:58,2.5,3,2.5,3,4.5,3
2012/3/17 6:59,2.5,3,2.6,3,5,3
2012/3/17 7:00,2.5,3,2.6,3,3.7,4
2012/3/17 7:01,2.6,3,2.6,3,4.9,4
2012/3/17 7:02,2.6,3,2.6,3,4.8,3
2012/3/17 7:03,2.7,3,2.7,3,3.6,3
2012/3/17 7:04,2.7,3,2.7,3,4.5,3
2012/3/17 7:05,2.8,3,2.8,3,4.5,3
2012/3/17 7:06,3,3,3,3,5.8,3
2012/3/17 7:07,3,3,3,3,4.2,3
2012/3/17 7:08,3.1,3,3.1,3,5.1,3
2012/3/17 7:09,3,3,3.1,3,4.2,3
2012/3/17 7:10,3.1,3,3.1,3,5.1,3
2012/3/17 7:11,3.1,3,3.2,3,4.7,3
2012/3/17 7:12,3.1,3,3.1,3,5,2
2012/3/17 7:13,3.1,3,3.1,3,4.8,4
2012/3/17 7:14,3,3,3.1,3,3.9,3
2012/3/17 7:15,2.9,3,3,3,3.8,3
2012/3/17 7:16,2.7,3,2.9,3,4.1,3
2012/3/17 7:17,2.7,3,2.7,3,4.5,3
2012/3/17 7:18,2.6,3,2.7,3,4.4,3
2012/3/17 7:19,2.7,3,2.7,3,4.9,3
2012/3/17 7:20,2.8,3,2.8,3,4.9,3
2012/3/17 7:21,2.8,3,2.8,3,5.1,4
2012/3/17 7:22,3,3,3,3,6.4,3
2012/3/17 7:23,3,3,3,3,4.4,3
2012/3/17 7:24,3,3,3,3,3.6,3
2012/3/17 7:25,3.1,3,3.1,3,4.1,3
2012/3/17 7:26,3.1,3,3.1,3,3.7,3
2012/3/17 7:27,3,3,3.1,3,3.3,2
2012/3/17 7:28,3,3,3,3,4.1,3
2012/3/17 7:29,3,3,3.1,3,4.2,3
2012/3/17 7:30,2.8,3,2.9,3,3.9,1
2012/3/17 7:31,2.8,2,2.8,3,4.7,2
2012/3/17 7:32,2.6,2,2.7,3,5.2,3
2012/3/17 7:33,2.6,2,2.6,3,5.7,4
2012/3/17 7:34,2.7,2,2.7,3,4.4,3
2012/3/17 7:35,2.8,2,2.8,3,5.1,3
2012/3/17 7:36,2.8,2,2.8,3,4.8,2
2012/3/17 7:37,2.9,2,2.9,3,4.8,2
2012/3/17 7:38,3,2,3,3,5.1,2
2012/3/17 7:39,3,2,3,2,4.5,3
2012/3/17 7:40,3,2,3,2,4.7,3
2012/3/17 7:41,3,3,3,2,3.3,3
2012/3/17 7:42,2.9,3,3,2,3.9,3
2012/3/17 7:43,2.9,3,2.9,2,4.3,3
2012/3/17 7:44,3,3,3,2,4.9,2
2012/3/17 7:45,2.9,3,3,2,4.7,4
2012/3/17 7:46,3.1,3,3.1,3,4.5,3
2012/3/17 7:47,3.1,3,3.1,3,4.7,3
2012/3/17 7:48,3.2,3,3.2,3,4.8,3
2012/3/17 7:49,3.1,3,3.2,3,3.7,3
2012/3/17 7:50,3.1,3,3.1,3,3.3,3
2012/3/17 7:51,3.2,3,3.2,3,4.7,3
2012/3/17 7:52,3.3,3,3.3,3,5.2,3
2012/3/17 7:53,3.2,3,3.3,3,3.8,3
2012/3/17 7:54,3.2,3,3.2,3,3.7,3
2012/3/17 7:55,3.1,3,3.2,3,4.2,3
2012/3/17 7:56,2.8,3,3.1,3,2.2,2
2012/3/17 7:57,2.7,3,2.8,3,4.1,3
2012/3/17 7:58,2.7,3,2.7,3,4.9,3
2012/3/17 7:59,2.8,3,2.8,3,4.9,4
2012/3/17 8:00,2.7,3,2.8,3,3.3,3
2012/3/17 8:01,2.6,3,2.7,3,3.1,3
2012/3/17 8:02,2.5,3,2.6,3,5.5,1
2012/3/17 8:03,2.5,3,2.5,3,4.4,3
2012/3/17 8:04,2.4,2,2.5,3,3.8,3
2012/3/17 8:05,2.4,2,2.4,3,4.9,3
2012/3/17 8:06,2.6,2,2.6,3,4.7,3
2012/3/17 8:07,2.6,2,2.7,3,3.3,1
2012/3/17 8:08,2.5,2,2.6,3,3.2,2
2012/3/17 8:09,2.4,2,2.5,3,3.9,2
2012/3/17 8:10,2.4,2,2.4,3,3.2,2
2012/3/17 8:11,2.4,2,2.4,2,3.3,1
2012/3/17 8:12,2.4,2,2.4,2,4.4,3
2012/3/17 8:13,2.4,2,2.4,2,3.3,3
2012/3/17 8:14,2.6,2,2.6,2,4.3,3
2012/3/17 8:15,2.6,2,2.6,2,5,2
2012/3/17 8:16,2.5,2,2.6,2,3.9,4
2012/3/17 8:17,2.6,3,2.6,2,4.3,5
2012/3/17 8:18,2.6,3,2.6,2,3,4
2012/3/17 8:19,2.6,3,2.7,3,3.3,5
2012/3/17 8:20,2.6,3,2.6,3,3,3
2012/3/17 8:21,2.7,3,2.7,3,3,4
2012/3/17 8:22,2.6,3,2.7,3,4.1,2
2012/3/17 8:23,2.7,3,2.7,3,4.3,4
2012/3/17 8:24,2.6,3,2.7,3,3.6,3
2012/3/17 8:25,2.5,3,2.6,3,3.9,3
2012/3/17 8:26,2.4,3,2.5,3,3.5,3
2012/3/17 8:27,2.3,3,2.3,3,4.4,4
2012/3/17 8:28,2.5,3,2.5,3,4.7,3
2012/3/17 8:29,2.6,3,2.6,3,4.3,3
2012/3/17 8:30,2.7,3,2.7,3,5.2,3
2012/3/17 8:31,2.6,3,2.7,3,3.6,2
2012/3/17 8:32,2.6,3,2.6,3,5,3
2012/3/17 8:33,2.6,3,2.6,3,4.4,2
2012/3/17 8:34,2.7,3,2.7,3,4.3,4
2012/3/17 8:35,2.8,3,2.8,3,3.5,4
2012/3/17 8:36,2.8,3,2.8,3,2.5,3
2012/3/17 8:37,2.7,3,2.8,3,1.8,3
2012/3/17 8:38,2.4,3,2.6,3,2.5,3
2012/3/17 8:39,2.4,3,2.4,3,4.2,2
2012/3/17 8:40,2.3,2,2.4,3,3.9,1
2012/3/17 8:41,2.4,2,2.4,3,3.9,1
2012/3/17 8:42,2.4,2,2.4,3,3.8,2
2012/3/17 8:43,2.2,2,2.3,3,3.5,2
2012/3/17 8:44,2.1,2,2.2,3,3,3
2012/3/17 8:45,2.1,2,2.1,3,5.2,4
2012/3/17 8:46,2.2,2,2.2,3,5.1,4
2012/3/17 8:47,2.4,2,2.4,3,3,3
2012/3/17 8:48,2.5,2,2.5,2,3,3
2012/3/17 8:49,2.5,3,2.5,2,3.9,4
2012/3/17 8:50,2.4,3,2.5,2,2.6,3
2012/3/17 8:51,2.3,3,2.4,2,2.7,4
2012/3/17 8:52,2.3,3,2.3,2,2.7,3
2012/3/17 8:53,2.3,3,2.3,2,2.6,2
2012/3/17 8:54,2.2,3,2.3,2,2.9,2
2012/3/17 8:55,2.2,3,2.3,2,4.4,3
2012/3/17 8:56,2.2,3,2.2,2,4.2,3
2012/3/17 8:57,2.1,3,2.2,2,3,3
2012/3/17 8:58,2.1,3,2.1,2,3.6,4
2012/3/17 8:59,2.2,3,2.2,3,4.4,3
2012/3/17 9:00,2.2,3,2.2,3,3.1,5
2012/3/17 9:01,2.3,3,2.3,3,3.5,2
2012/3/17 9:02,2.3,3,2.4,3,3.3,4
2012/3/17 9:03,2.3,3,2.4,3,2.4,3
2012/3/17 9:04,2.5,3,2.5,3,3.8,3
2012/3/17 9:05,2.4,3,2.5,3,3.6,3
2012/3/17 9:06,2.3,3,2.4,3,3.3,1
2012/3/17 9:07,2.4,3,2.4,3,2.9,1
2012/3/17 9:08,2.4,3,2.4,3,5,2
2012/3/17 9:09,2.3,2,2.4,3,4.7,3
2012/3/17 9:10,2.2,2,2.3,3,3.7,4
2012/3/17 9:11,2.2,2,2.2,3,3.5,3
2012/3/17 9:12,2.1,2,2.2,3,2.2,3
2012/3/17 9:13,2.1,2,2.1,3,2.2,3
2012/3/17 9:14,2,2,2.1,3,2.5,4
2012/3/17 9:15,2,2,2,3,2.9,3
2012/3/17 9:16,2,3,2,3,3.3,2
2012/3/17 9:17,2,3,2,3,2.9,2
2012/3/17 9:18,1.9,3,2,2,2.7,2
2012/3/17 9:19,1.9,3,2,2,4.1,3
2012/3/17 9:20,1.9,2,1.9,2,3.9,2
2012/3/17 9:21,1.8,2,1.9,2,3,16
2012/3/17 9:22,1.8,2,1.8,2,2,4
2012/3/17 9:23,1.7,2,1.8,2,2,4
2012/3/17 9:24,1.7,2,1.7,2,2.1,5
2012/3/17 9:25,1.6,3,1.7,2,2,4
2012/3/17 9:26,1.5,3,1.6,3,1.6,6
2012/3/17 9:27,1.5,3,1.5,3,2.1,3
2012/3/17 9:28,1.5,3,1.5,3,2.6,5
2012/3/17 9:29,1.5,4,1.5,3,3.5,4
2012/3/17 9:30,1.5,4,1.5,2,3.3,3
2012/3/17 9:31,1.5,4,1.5,2,2.1,3
2012/3/17 9:32,1.5,4,1.5,2,2.4,3
2012/3/17 9:33,1.6,4,1.6,2,2.2,3
2012/3/17 9:34,1.6,4,1.6,2,2.4,4
2012/3/17 9:35,1.6,3,1.6,3,2.5,3
2012/3/17 9:36,1.7,3,1.7,3,3.1,3
2012/3/17 9:37,1.8,3,1.8,3,3.2,3
2012/3/17 9:38,1.8,3,1.8,3,3,2
2012/3/17 9:39,1.8,3,1.8,3,2.5,4
2012/3/17 9:40,1.7,3,1.8,3,2.4,4
2012/3/17 9:41,1.8,2,1.8,3,3,3
2012/3/17 9:42,1.8,2,1.8,3,3,3
2012/3/17 9:43,1.7,2,1.8,3,2.6,2
2012/3/17 9:44,1.7,2,1.7,3,2.2,1
2012/3/17 9:45,1.7,2,1.7,3,2.2,3
2012/3/17 9:46,1.5,2,1.7,3,1.6,3
2012/3/17 9:47,1.4,2,1.5,3,1.4,4
2012/3/17 9:48,1.3,2,1.4,3,1.4,4
2012/3/17 9:49,1.2,3,1.3,3,1.3,4
2012/3/17 9:50,1.1,3,1.1,3,1.4,4
2012/3/17 9:51,1.1,3,1.1,2,2.1,4
2012/3/17 9:52,1.1,3,1.1,2,2.1,3
2012/3/17 9:53,1.1,3,1.1,2,2,1
2012/3/17 9:54,1.1,3,1.1,2,1.9,2
2012/3/17 9:55,1.1,3,1.1,2,2.6,2
2012/3/17 9:56,1.2,3,1.2,2,2.5,2
2012/3/17 9:57,1.2,2,1.2,2,3,3
2012/3/17 9:58,1.4,2,1.4,2,3.5,2
2012/3/17 9:59,1.6,2,1.6,2,3.7,2
2012/3/17 10:00,1.6,2,1.6,2,2.9,2
2012/3/17 10:01,1.6,2,1.6,2,2.5,1
2012/3/17 10:02,1.6,2,1.6,2,2.6,4
2012/3/17 10:03,1.6,2,1.6,2,2,1
2012/3/17 10:04,1.6,2,1.7,2,2.4,2
2012/3/17 10:05,1.6,2,1.6,2,2.2,3
2012/3/17 10:06,1.6,2,1.6,2,1.9,3
2012/3/17 10:07,1.6,2,1.6,2,2.6,2
2012/3/17 10:08,1.6,2,1.6,2,3.6,3
2012/3/17 10:09,1.5,2,1.6,2,2.9,3
2012/3/17 10:10,1.5,2,1.5,2,3.1,3
2012/3/17 10:11,1.7,2,1.7,2,3.3,3
2012/3/17 10:12,1.8,2,1.8,2,3.3,3
2012/3/17 10:13,1.9,3,1.9,2,2.9,3
2012/3/17 10:14,2,3,2,3,2.7,3
2012/3/17 10:15,2.1,3,2.1,3,2.7,4
2012/3/17 10:16,2.2,3,2.2,3,3,4
2012/3/17 10:17,2.2,3,2.2,3,1.8,2
2012/3/17 10:18,2.1,3,2.2,3,4.1,3
2012/3/17 10:19,2.2,3,2.2,3,3.3,2
2012/3/17 10:20,2.2,3,2.2,3,2.9,2
2012/3/17 10:21,2,3,2.2,3,2.7,1
2012/3/17 10:22,1.9,2,2,3,2.7,2
2012/3/17 10:23,1.9,2,1.9,3,3,2
2012/3/17 10:24,1.8,2,1.9,3,1.8,3
2012/3/17 10:25,1.7,2,1.8,3,2.2,1
2012/3/17 10:26,1.6,2,1.7,3,2.4,2
2012/3/17 10:27,1.7,2,1.7,3,2.5,3
2012/3/17 10:28,1.7,2,1.8,3,2.9,3
2012/3/17 10:29,1.7,2,1.7,3,2.6,3
2012/3/17 10:30,1.7,2,1.7,3,2.9,2
2012/3/17 10:31,1.7,2,1.8,3,2.5,3
2012/3/17 10:32,1.7,2,1.7,2,2.5,3
2012/3/17 10:33,1.7,2,1.7,2,2.2,3
2012/3/17 10:34,1.7,2,1.7,2,2.5,2
2012/3/17 10:35,1.7,2,1.7,2,2.2,3
2012/3/17 10:36,1.7,2,1.7,2,2,3
2012/3/17 10:37,1.7,2,1.7,2,2.9,3
2012/3/17 10:38,1.6,2,1.7,2,2.5,3
2012/3/17 10:39,1.6,3,1.7,2,2.9,3
2012/3/17 10:40,1.6,3,1.6,2,2.5,3
2012/3/17 10:41,1.6,3,1.6,2,3,2
2012/3/17 10:42,1.7,3,1.7,2,3.1,3
2012/3/17 10:43,1.7,3,1.7,2,2.5,3
2012/3/17 10:44,1.6,3,1.7,2,2.4,4
2012/3/17 10:45,1.7,3,1.7,2,3,4
2012/3/17 10:46,1.9,3,1.9,3,3.6,4
2012/3/17 10:47,1.9,3,1.9,3,3.5,4
2012/3/17 10:48,2.1,3,2.1,3,3.7,3
2012/3/17 10:49,2.1,3,2.1,3,3.3,3
2012/3/17 10:50,2.1,3,2.2,3,2.9,3
2012/3/17 10:51,2.1,3,2.1,3,2.7,3
2012/3/17 10:52,2.1,3,2.2,3,2.4,3
2012/3/17 10:53,2.2,3,2.2,3,2.4,3
2012/3/17 10:54,2.1,3,2.2,3,2.2,3
2012/3/17 10:55,2.1,3,2.1,3,2,3
2012/3/17 10:56,2,3,2.1,3,2,4
2012/3/17 10:57,1.9,3,2,3,2.4,2
2012/3/17 10:58,1.7,3,1.8,3,2.4,3
2012/3/17 10:59,1.6,3,1.7,3,2.7,3
2012/3/17 11:00,1.7,3,1.7,3,3.9,3
2012/3/17 11:01,1.9,3,1.9,3,4.4,3
2012/3/17 11:02,1.9,3,1.9,3,3.7,3
2012/3/17 11:03,2,3,2,3,3.3,3
2012/3/17 11:04,2,3,2,3,3.2,3
2012/3/17 11:05,2.1,3,2.1,3,3.2,3
2012/3/17 11:06,2.2,3,2.2,3,3.2,2
2012/3/17 11:07,2.1,3,2.2,3,2.2,2
2012/3/17 11:08,2.1,3,2.1,3,1.9,2
2012/3/17 11:09,2.1,3,2.1,3,2.4,3
2012/3/17 11:10,1.9,3,2.1,3,2.1,3
2012/3/17 11:11,1.7,2,1.9,3,2.5,3
2012/3/17 11:12,1.6,2,1.7,3,2.6,2
2012/3/17 11:13,1.6,2,1.6,3,2.2,4
2012/3/17 11:14,1.4,2,1.6,3,1.3,3
2012/3/17 11:15,1.3,2,1.4,3,1.5,3
2012/3/17 11:16,1.2,2,1.3,3,1,1
2012/3/17 11:17,1.1,2,1.2,3,1.3,2
2012/3/17 11:18,1.1,2,1.1,3,1.5,2
2012/3/17 11:19,1.1,2,1.1,3,1.6,2
2012/3/17 11:20,1.2,2,1.2,2,2.9,2
2012/3/17 11:21,1.2,2,1.2,2,2.7,2
2012/3/17 11:22,1.2,2,1.2,2,1.9,3
2012/3/17 11:23,1.1,2,1.2,2,1.6,3
2012/3/17 11:24,1.1,2,1.1,2,1.6,4
2012/3/17 11:25,1.1,2,1.1,2,1.1,3
2012/3/17 11:26,1.1,2,1.1,2,0.8,1
2012/3/17 11:27,1.1,2,1.1,2,1,2
2012/3/17 11:28,1,2,1.1,2,0.4,13
2012/3/17 11:29,0.9,2,1,2,0.6,13
2012/3/17 11:30,0.7,2,0.9,2,0.6,11
2012/3/17 11:31,0.7,1,0.7,2,1.1,12
2012/3/17 11:32,0.6,16,0.7,2,0.8,11
2012/3/17 11:33,0.6,13,0.6,2,0.8,12
2012/3/17 11:34,0.5,12,0.6,2,0.6,10
2012/3/17 11:35,0.4,12,0.4,2,0,11
2012/3/17 11:36,0.3,12,0.4,2,0,11
2012/3/17 11:37,0.3,12,0.3,2,0,13
2012/3/17 11:38,0.3,11,0.3,2,0.5,10
2012/3/17 11:39,0.4,11,0.4,2,1,11
2012/3/17 11:40,0.4,11,0.4,2,1.3,9
2012/3/17 11:41,0.4,11,0.4,1,1.1,11
2012/3/17 11:42,0.4,11,0.4,15,0.9,12
2012/3/17 11:43,0.4,12,0.4,13,0.5,12
2012/3/17 11:44,0.4,12,0.4,12,1,12
2012/3/17 11:45,0.5,12,0.5,12,1,12
2012/3/17 11:46,0.6,12,0.6,12,1.3,11
2012/3/17 11:47,0.7,11,0.7,12,2,10
2012/3/17 11:48,0.9,11,0.9,11,2.7,10
2012/3/17 11:49,1.1,11,1.1,11,2.9,10